Location: Dion R Holm Powerhouse
(37.8966°N, 119.9688°W)
Time: 22:27:35
(UTC+00:00)

Cosmos 1515 - Pass Details

Date: 16 September 2024
Orbit: 431 x 437 km, 82.5° (Epoch: 02 October)

Event Time Altitude Azimuth Distance (km) Brightness Sun altitude
Exits shadow 12:01:07 13° 162° (SSE) 1,346 5.8 -20.5°
Maximum altitude 12:03:48 41° 93° (E) 640 4.6 -20.0°
Drops below altitude 10° 12:06:58 10° 22° (NNE) 1,539 6.6 -19.4°
Sets 12:09:05 0° 15° (NNE) 2,412 7.6 -19.0°
